User: anonymous   Login
Location: Cranbrook Institute of Science
(42.5830°N, 83.2450°W)
Time: 10:03:07
(UTC-04:00)
Language:

CZ-4B R/B - Orbit

View from above orbital plane
View from above orbital plane
View from above satellite
View from above satellite

Ground track
Ground track

The orbit data is extracted from the following two-line orbital elements,

1 29093U 06015B   16241.16432912  .00002490  00000-0  65682-4 0  9993
2 29093  97.4859 339.8289 0066814 290.1861  69.2206 15.37287623572475
Epoch (UTC): 28 August 2016 03:56:38
Eccentricity: 0.0066814
inclination: 97.4859°
perigee height: 408 km
apogee height: 500 km
right ascension of ascending node: 339.8289°
argument of perigee: 290.1861°
revolutions per day: 15.37287623
mean anomaly at epoch: 69.2206°
orbit number at epoch: 57247

The dashed part of the orbit path shows where the satellite is in the earth's shadow,  

DLR